Location: Unspecified
(0.0000°N, 0.0000°E)
Time: 13:12:41
(UTC+00:00)

Intasat - Visible Passes

Search period start: 26 September 2022 00:00
Search period end: 06 October 2022 00:00
Orbit: 1441 x 1458 km, 101.9° (Epoch: 25 September)

Date Brightness Start Highest point End Pass type
(mag) Time Alt. Az. Time Alt. Az. Time Alt. Az.
26 Sep ? 03:17:56 10° NE 03:25:22 37° ESE 03:32:46 10° S visible
26 Sep ? 05:10:51 10° NNW 05:17:44 30° WNW 05:24:38 10° SW visible
27 Sep ? 04:09:56 10° NNE 04:18:14 87° WNW 04:26:34 10° SSW visible
28 Sep ? 03:11:37 10° NE 03:18:45 33° ESE 03:25:52 10° SSE visible
28 Sep ? 05:03:54 10° NNW 05:11:07 34° WNW 05:18:21 10° SW visible
29 Sep ? 04:03:19 10° NNE 04:11:37 84° ESE 04:19:56 10° SSW visible
30 Sep ? 03:05:20 10° NE 03:12:08 29° ESE 03:18:55 10° SSE visible
30 Sep ? 04:57:02 10° N 05:04:30 38° WNW 05:12:00 10° SW visible
01 Oct ? 03:56:43 10° NNE 04:04:59 75° ESE 04:13:16 10° S visible
02 Oct ? 02:59:07 10° NE 03:05:31 25° ESE 03:11:54 10° SSE visible
02 Oct ? 04:50:11 10° N 04:57:52 44° WNW 05:05:36 10° SW visible
03 Oct ? 03:50:10 10° NNE 03:58:22 67° ESE 04:06:34 10° S visible
04 Oct ? 02:52:59 10° ENE 02:58:55 22° ESE 03:04:49 10° SSE visible
04 Oct ? 04:43:23 10° N 04:51:15 49° WNW 04:59:10 10° SW visible
05 Oct ? 03:43:38 10° NNE 03:51:44 59° ESE 03:59:50 10° S visible
